Location: Newark
(48.8656°N, 2.3211°E)
Time: 15:43:03
(UTC+00:00)

Envisat - Pass Details

Date: 11 December 2019
Orbit: 764 x 766 km, 98.1° (Epoch: 18 January)

Event Time Altitude Azimuth Distance (km) Brightness Sun altitude
Rises 05:41:29 0° 24° (NNE) 3,245 6.4 -17.5°
Reaches altitude 10° 05:44:14 10° 38° (NE) 2,313 5.8 -17.0°
Maximum altitude 05:48:20 24° 92° (E) 1,555 5.5 -16.4°
Drops below altitude 10° 05:52:23 10° 145° (SE) 2,298 6.2 -15.7°
Sets 05:55:06 0° 159° (SSE) 3,218 6.8 -15.3°
